Location: Lafig�re
(44.4503°N, 4.0357°E)
Time: 16:24:10
(UTC+00:00)

deb Explorer IX - Pass Details

Date: 29 January 2021
Orbit: 537 x 1102 km, 38.8° (Epoch: 04 March)

Event Time Altitude Azimuth Distance (km) Brightness Sun altitude
Rises 14:19:51 0° 216° (SW) 3,903 ? 19.8°
Reaches altitude 10° 14:23:07 10° 205° (SSW) 2,936 ? 19.4°
Maximum altitude 14:28:52 26° 152° (SSE) 1,940 ? 18.8°
Drops below altitude 10° 14:34:18 10° 99° (E) 2,760 ? 18.2°
Sets 14:37:16 0° 87° (E) 3,628 ? 17.9°
